User: anonymous   Login
Location: Zlin
(49.2330°N, 17.6670°E)
Time: 08:31:49
(UTC+01:00)
Language:

VELOX 1 - Orbit

View from above orbital plane
View from above orbital plane
View from above satellite
View from above satellite

Ground track
Ground track

The orbit data is extracted from the following two-line orbital elements,

1 40057U 14034E   24063.88345680  .00009539  00000-0  11333-2 0  9994
2 40057  98.3552 274.0055 0010067 118.8960 241.3264 14.84631188522072
Epoch (UTC): 03 March 2024 21:12:10
Eccentricity: 0.0010067
inclination: 98.3552°
perigee height: 608 km
apogee height: 622 km
right ascension of ascending node: 274.0055°
argument of perigee: 118.8960°
revolutions per day: 14.84631188
mean anomaly at epoch: 241.3264°
orbit number at epoch: 52207

The dashed part of the orbit path shows where the satellite is in the earth's shadow,  

DLR